Simultaneous Nadir Overpasses (SNOs) Predictions

Prediction of SNOs between METOP-B and NOAA-19 Satellite Orbit:

Table of predicted SNOs for the next 14.0 days since TLE Epoch: 4/2/2022
Index Date (METOP-B) Time (METOP-B) Lat,Lon (METOP-B) SZA (METOP-B ) Date (NOAA-19) Time (NOAA-19) Lat,Lon (NOAA-19) SZA (NOAA-19 ) Distance(km) Time Diff (sec)
1 04/08/2022 10:56:09 80.80, 48.52 74.91 04/08/2022 10:55:02 80.81, 48.49 74.89 1.15 67
2 04/08/2022 11:46:50 -80.80,-144.15 105.11 04/08/2022 11:46:06 -80.80,-143.96 105.11 3.27 44
3 04/08/2022 12:37:30 80.81, 23.39 74.91 04/08/2022 12:37:01 80.80, 23.37 74.89 1.19 29
4 04/08/2022 13:28:11 -80.81,-169.28 105.11 04/08/2022 13:28:06 -80.80,-169.45 105.13 3.20 5
5 04/08/2022 14:18:52 80.80, -2.10 74.87 04/08/2022 14:19:01 80.80, -2.12 74.86 0.45 9
6 04/08/2022 15:09:33 -80.80, 165.24 105.15 04/08/2022 15:10:06 -80.80, 165.07 105.16 3.06 33
7 04/08/2022 16:00:14 80.79, -27.58 74.82 04/08/2022 16:01:01 80.80, -27.61 74.84 0.76 47



Historial Predications of SNOs between METOP-B and NOAA-19
